Location: Altmatt
(47.1333°N, 8.7000°E)
Time: 18:14:34
(UTC+00:00)

SL-16 R/B - Pass Details

Date: 13 July 2020
Orbit: 839 x 850 km, 71.0° (Epoch: 12 August)

Event Time Altitude Azimuth Distance (km) Brightness Sun altitude
Rises 22:46:58 0° 240° (WSW) 3,397 5.2 -20.5°
Reaches altitude 10° 22:49:45 10° 252° (WSW) 2,467 4.5 -20.6°
Maximum altitude 22:54:37 29° 311° (NW) 1,520 4.0 -20.7°
Drops below altitude 10° 22:59:31 10° 11° (N) 2,484 5.7 -20.9°
Sets 23:02:20 0° 23° (NNE) 3,425 6.4 -20.9°
